Flag for U.S.A. Weather past 2 weeks in Simi Valley, California, U.S.A.

Now
84 °F

Sunny.


Feels Like: 84 °F
Forecast: 61 / 90 °F
Wind: No wind

Location: Van Nuys Airport

Current Time: Jul 28, 2015 at 1:01:48 PM

Latest Report: Jul 28, 2015 at 11:51 AM


Visibility: 10 mi

Pressure: 29.87 "Hg

Humidity: 43%

Dew point: 59 °F

Location of Simi ValleyLocation

Historic Weather in Simi Valley — Graph

°F

Simi Valley temperature yesterday

Maximum temperature yesterday: 85 °F (at 2:51 PM)
Minimum temperature yesterday: 64 °F (at 2:51 AM)
Average temperature yesterday: 74 °F

Past Weeks' High & Low Weather Summary

 TemperatureHumidityPressure
High95 °F (Jul 25, 2:51 PM)93% (Jul 18, 7:51 PM)30.07 "Hg (Jul 18, 7:51 PM)
Low62 °F (Jul 17, 5:51 AM)14% (Jul 17, 2:51 PM)29.75 "Hg (Jul 17, 5:51 PM)
Average76 °F61%29.90 "Hg
* Reported Jul 13 11:51 AM — Jul 28 11:51 AM, Simi Valley, Weather by CustomWeather, © 2015

Note: Actual official high and low records may vary slightly from our data, if they occured in-between our weather recording intervals... More about our weather records

Advertising

Simi Valley weather history for previous 24 hours

 ConditionsComfort  
Time TempWeatherWind HumidityBarometerVisibility
11:51 AM
Tue, Jul 28
84 °FSunny.No wind43%29.87 "Hg10 mi
10:51 AM78 °FSunny.No wind52%29.88 "Hg10 mi
9:51 AM73 °FSunny.No wind64%29.89 "Hg9 mi
8:51 AM70 °FScattered clouds.No wind73%29.90 "Hg6 mi
7:51 AM67 °FLow clouds.5 mph81%29.90 "Hg6 mi
6:51 AM65 °FFog.No wind87%29.88 "Hg5 mi
5:58 AM64 °FPassing clouds.5 mph90%29.90 "Hg7 mi
4:51 AM65 °FClear.3 mph85%29.86 "Hg10 mi
3:51 AM66 °FClear.No wind81%29.85 "Hg10 mi
2:51 AM67 °FClear.5 mph81%29.85 "Hg10 mi
1:51 AM68 °FClear.3 mph76%29.85 "Hg10 mi
12:51 AM69 °FClear.3 mph70%29.87 "Hg10 mi
11:51 PM
Mon, Jul 27
70 °FClear.5 mph66%29.88 "Hg10 mi
10:51 PM71 °FClear.3 mph63%29.88 "Hg10 mi
9:51 PM72 °FClear.6 mph59%29.88 "Hg10 mi
8:51 PM73 °FSunny.6 mph57%29.86 "Hg10 mi
7:51 PM75 °FSunny.8 mph54%29.85 "Hg10 mi
6:51 PM79 °FSunny.9 mph45%29.83 "Hg10 mi
5:51 PM82 °FSunny.12 mph43%29.82 "Hg10 mi
4:51 PM83 °FSunny.9 mph43%29.82 "Hg10 mi
3:51 PM84 °FSunny.13 mph41%29.84 "Hg10 mi
2:51 PM85 °FSunny.13 mph40%29.85 "Hg10 mi
1:51 PM83 °FSunny.14 mph44%29.86 "Hg10 mi
Weather by CustomWeather, © 2015

See weather overviewHow to use our weather pages